Time,TemperatureF,DewpointF,PressureIn,WindDirection,WindDirectionDegrees,WindSpeedMPH,WindSpeedGustMPH,Humidity,HourlyPrecipIn,Conditions,Clouds,dailyrainin,SoftwareType,DateUTC
2013-01-06 16:03:00,44.0,29.0,30.02,West,259,7.0,-999.0,56,-99.99,,,-99.99,,2013-01-06 21:03:00,
2013-01-06 16:12:00,44.0,29.0,30.02,West,259,7.0,-999.0,56,-99.99,,,-99.99,,2013-01-06 21:12:00,
2013-01-06 16:22:00,44.0,30.0,30.02,WSW,251,6.0,-999.0,57,-99.99,,,-99.99,,2013-01-06 21:22:00,
2013-01-06 16:43:00,44.0,29.0,30.02,WSW,252,4.0,-999.0,56,-99.99,,,-99.99,,2013-01-06 21:43:00,
2013-01-06 16:52:00,44.0,29.0,30.02,WSW,252,4.0,-999.0,56,-99.99,,,-99.99,,2013-01-06 21:52:00,
2013-01-06 17:02:00,43.0,29.0,30.02,WSW,254,3.0,-999.0,57,-99.99,,,-99.99,,2013-01-06 22:02:00,
2013-01-06 17:12:00,43.0,29.0,30.02,WSW,254,3.0,-999.0,57,-99.99,,,-99.99,,2013-01-06 22:12:00,
2013-01-06 17:22:00,42.0,29.0,30.03,WSW,258,4.0,-999.0,59,-99.99,,,-99.99,,2013-01-06 22:22:00,
2013-01-06 17:33:00,42.0,29.0,30.03,WSW,258,3.0,-999.0,59,-99.99,,,-99.99,,2013-01-06 22:33:00,
2013-01-06 17:43:00,42.0,29.0,30.03,WSW,258,3.0,-999.0,59,-99.99,,,-99.99,,2013-01-06 22:43:00,
2013-01-06 17:52:00,41.0,28.0,30.03,WSW,258,1.0,-999.0,60,-99.99,,,-99.99,,2013-01-06 22:52:00,
2013-01-06 18:02:00,41.0,29.0,30.04,WSW,258,2.0,-999.0,61,-99.99,,,-99.99,,2013-01-06 23:02:00,
2013-01-06 18:13:00,41.0,29.0,30.04,WSW,258,2.0,-999.0,61,-99.99,,,-99.99,,2013-01-06 23:13:00,
2013-01-06 18:22:00,41.0,29.0,30.04,WSW,258,5.0,-999.0,63,-99.99,,,-99.99,,2013-01-06 23:22:00,
2013-01-06 18:33:00,41.0,30.0,30.04,WSW,257,5.0,-999.0,64,-99.99,,,-99.99,,2013-01-06 23:33:00,
2013-01-06 18:43:00,41.0,30.0,30.04,WSW,257,5.0,-999.0,64,-99.99,,,-99.99,,2013-01-06 23:43:00,
2013-01-06 18:52:00,41.0,29.0,30.05,WSW,257,4.0,-999.0,63,-99.99,,,-99.99,,2013-01-06 23:52:00,
2013-01-06 19:03:00,41.0,29.0,30.05,WSW,257,4.0,-999.0,63,-99.99,,,-99.99,,2013-01-07 00:03:00,
2013-01-06 19:12:00,41.0,29.0,30.05,WSW,257,4.0,-999.0,63,-99.99,,,-99.99,,2013-01-07 00:12:00,
2013-01-06 19:23:00,41.0,29.0,30.05,WSW,257,3.0,-999.0,63,-99.99,,,-99.99,,2013-01-07 00:23:00,
2013-01-06 19:33:00,40.0,29.0,30.06,WSW,257,4.0,-999.0,64,-99.99,,,-99.99,,2013-01-07 00:33:00,
2013-01-06 19:43:00,40.0,29.0,30.06,WSW,257,4.0,-999.0,64,-99.99,,,-99.99,,2013-01-07 00:43:00,
2013-01-06 19:53:00,40.0,29.0,30.06,WSW,257,3.0,-999.0,64,-99.99,,,-99.99,,2013-01-07 00:53:00,
2013-01-06 20:02:00,40.0,28.0,30.06,WSW,257,2.0,-999.0,63,-99.99,,,-99.99,,2013-01-07 01:02:00,
2013-01-06 20:12:00,40.0,28.0,30.06,WSW,257,2.0,-999.0,63,-99.99,,,-99.99,,2013-01-07 01:12:00,
2013-01-06 20:23:00,41.0,29.0,30.06,WSW,257,2.0,-999.0,63,-99.99,,,-99.99,,2013-01-07 01:23:00,
2013-01-06 20:32:00,40.0,28.0,30.06,WSW,257,3.0,-999.0,63,-99.99,,,-99.99,,2013-01-07 01:32:00,
2013-01-06 20:43:00,40.0,28.0,30.06,WSW,257,3.0,-999.0,63,-99.99,,,-99.99,,2013-01-07 01:43:00,
2013-01-06 20:52:00,40.0,29.0,30.06,WSW,257,4.0,-999.0,64,-99.99,,,-99.99,,2013-01-07 01:52:00,
2013-01-06 21:02:00,40.0,29.0,30.06,WSW,257,3.0,-999.0,64,-99.99,,,-99.99,,2013-01-07 02:02:00,
2013-01-06 21:12:00,40.0,29.0,30.06,WSW,257,3.0,-999.0,64,-99.99,,,-99.99,,2013-01-07 02:12:00,
2013-01-06 21:23:00,40.0,29.0,30.07,WSW,257,3.0,-999.0,64,-99.99,,,-99.99,,2013-01-07 02:23:00,
2013-01-06 21:32:00,41.0,29.0,30.07,WSW,257,3.0,-999.0,63,-99.99,,,-99.99,,2013-01-07 02:32:00,
2013-01-06 21:42:00,41.0,29.0,30.07,WSW,257,3.0,-999.0,63,-99.99,,,-99.99,,2013-01-07 02:42:00,
2013-01-06 21:53:00,40.0,30.0,30.07,WSW,257,5.0,-999.0,66,-99.99,,,-99.99,,2013-01-07 02:53:00,
2013-01-06 22:02:00,40.0,30.0,30.08,WSW,255,8.0,-999.0,67,-99.99,,,-99.99,,2013-01-07 03:02:00,
2013-01-06 22:12:00,40.0,30.0,30.08,WSW,255,8.0,-999.0,67,-99.99,,,-99.99,,2013-01-07 03:12:00,
2013-01-06 22:23:00,40.0,30.0,30.08,WSW,253,7.0,-999.0,66,-99.99,,,-99.99,,2013-01-07 03:23:00,
2013-01-06 22:33:00,40.0,30.0,30.08,West,260,7.0,-999.0,67,-99.99,,,-99.99,,2013-01-07 03:33:00,
2013-01-06 22:43:00,40.0,30.0,30.08,West,260,7.0,-999.0,67,-99.99,,,-99.99,,2013-01-07 03:43:00,
2013-01-06 22:52:00,40.0,30.0,30.08,West,263,7.0,-999.0,68,-99.99,,,-99.99,,2013-01-07 03:52:00,
2013-01-06 23:02:00,39.0,30.0,30.09,West,263,6.0,-999.0,69,-99.99,,,-99.99,,2013-01-07 04:02:00,
2013-01-06 23:13:00,39.0,30.0,30.09,West,263,6.0,-999.0,69,-99.99,,,-99.99,,2013-01-07 04:13:00,
2013-01-06 23:22:00,39.0,30.0,30.09,West,264,6.0,-999.0,69,-99.99,,,-99.99,,2013-01-07 04:22:00,
2013-01-06 23:33:00,39.0,30.0,30.10,West,263,5.0,-999.0,70,-99.99,,,-99.99,,2013-01-07 04:33:00,
2013-01-06 23:42:00,39.0,30.0,30.10,West,263,5.0,-999.0,70,-99.99,,,-99.99,,2013-01-07 04:42:00,
2013-01-06 23:52:00,39.0,30.0,30.10,West,264,6.0,-999.0,70,-99.99,,,-99.99,,2013-01-07 04:52:00,